This demonstration page uses our WeatherBlox Daily Observations layout. Learn more.

Left ArrowRight Arrow

Hourly Observations for January 1, 2019

Temp ( °F °C ) Dew Point ( °F °C ) Humidity (%) Winds ( mph kmh ) Pressure ( in mb ) Visibility ( mi km ) Precip ( " mm )
12:16 am 00:16 Cloudy 67 19.4 63 17.2 87 87 SW 14 22 29.97 1015 10 16 0.00 0.00
12:59 am 00:59 Cloudy 67 19.4 63 17.2 87 87 SSW 15 24 29.94 1014 10 16 0.00 0.00
1:08 am 01:08 Cloudy 67 19.4 63 17.2 87 87 SW 14 22 29.94 1014 10 16 0.00 0.00
1:59 am 01:59 Cloudy 68 20 63 17.2 84 84 SW 15 24 29.93 1014 10 16 0.00 0.00
2:14 am 02:14 Mostly Cloudy 68 20 63 17.2 84 84 SW 17 28 29.94 1014 10 16 0.00 0.00
2:59 am 02:59 Mostly Clear 68 20 63 17.2 84 84 SSW 16 26 29.91 1013 10 16 0.00 0.00
3:50 am 03:50 Cloudy 68 20 63 17.2 84 84 SW 13 20 29.91 1013 10 16 0.00 0.00
3:59 am 03:59 Cloudy 68 20 63 17.2 84 84 SW 14 22 29.90 1012 10 16 0.00 0.00
4:59 am 04:59 Mostly Clear 67 19.4 62 16.7 84 84 SSW 14 22 29.88 1012 10 16 0.00 0.00
5:59 am 05:59 Partly Cloudy 67 19.4 62 16.7 84 84 SW 16 26 29.88 1012 10 16 0.00 0.00
6:59 am 06:59 Partly Cloudy 68 20 62 16.7 81 81 SW 15 24 29.88 1012 10 16 0.00 0.00
7:18 am 07:18 Mostly Cloudy 68 20 62 16.7 81 81 WSW 16 26 29.91 1013 10 16 0.00 0.00
7:59 am 07:59 Cloudy 69 20.6 62 16.7 78 78 WSW 13 20 29.91 1013 10 16 0.00 0.00
8:25 am 08:25 Partly Cloudy 69 20.6 62 16.7 78 78 WSW 13 20 29.91 1013 10 16 0.00 0.00
8:59 am 08:59 Mostly Sunny 70 21.1 62 16.7 76 76 WSW 16 26 29.94 1014 10 16 0.00 0.00
9:59 am 09:59 Mostly Sunny 71 21.7 61 16.1 71 71 WSW 17 28 29.95 1014 10 16 0.00 0.00
10:59 am 10:59 Sunny 68 20 56 13.3 65 65 W 20 31 29.97 1015 10 16 0.00 0.00
11:59 am 11:59 Sunny 67 19.4 52 11.1 59 59 W 13 20 29.96 1014 10 16 0.00 0.00
12:59 pm 12:59 Sunny 65 18.3 51 10.6 61 61 W 15 24 29.97 1015 10 16 0.00 0.00
1:59 pm 13:59 Sunny 65 18.3 50 10 59 59 W 13 20 29.99 1016 10 16 0.00 0.00
2:59 pm 14:59 Sunny 65 18.3 49 9.4 56 56 W 14 22 30.03 1017 10 16 0.00 0.00
3:59 pm 15:59 Sunny 63 17.2 49 9.4 60 60 W 8 13 30.04 1017 10 16 0.00 0.00
4:59 pm 16:59 Sunny 60 15.6 49 9.4 67 67 W 7 11 30.07 1018 10 16 0.00 0.00
5:59 pm 17:59 Clear 56 13.3 43 6.1 62 62 NE 13 20 30.11 1020 10 16 0.00 0.00
6:59 pm 18:59 Clear 52 11.1 43 6.1 72 72 NE 12 19 30.16 1021 10 16 0.00 0.00
7:59 pm 19:59 Clear 52 11.1 43 6.1 72 72 NE 10 17 30.18 1022 10 16 0.00 0.00
8:59 pm 20:59 Clear 50 10 42 5.6 74 74 NNE 10 17 30.19 1022 10 16 0.00 0.00
9:59 pm 21:59 Clear 50 10 42 5.6 74 74 ENE 6 9 30.20 1023 10 16 0.00 0.00
10:59 pm 22:59 Clear 49 9.4 40 4.4 71 71 NNE 12 19 30.20 1023 10 16 0.00 0.00
11:59 pm 23:59 Partly Cloudy 49 9.4 40 4.4 71 71 NNE 12 19 30.22 1023 10 16 0.00 0.00

Powered by AerisWeather